TimeEDT,TemperatureF,Dew PointF,Humidity,Sea Level PressureIn,VisibilityMPH,Wind Direction,Wind SpeedMPH,Gust SpeedMPH,PrecipitationIn,Events,Conditions,WindDirDegrees,DateUTC
12:53 AM,55.0,53.1,93,30.13,10.0,Calm,Calm,-,N/A,,Clear,0,2012-10-24 04:53:00
1:53 AM,54.0,53.1,97,30.13,10.0,Calm,Calm,-,N/A,,Clear,0,2012-10-24 05:53:00
2:53 AM,54.0,52.0,93,30.14,10.0,Calm,Calm,-,N/A,,Clear,0,2012-10-24 06:53:00
3:53 AM,53.1,51.1,93,30.14,10.0,Calm,Calm,-,N/A,Fog,Shallow Fog,0,2012-10-24 07:53:00
4:48 AM,51.8,51.8,100,30.16,8.0,Calm,Calm,-,N/A,Fog,Shallow Fog,0,2012-10-24 08:48:00
4:53 AM,51.1,50.0,96,30.15,8.0,Calm,Calm,-,N/A,Fog,Shallow Fog,0,2012-10-24 08:53:00
5:46 AM,51.8,50.0,94,30.17,9.0,Calm,Calm,-,N/A,Fog,Patches of Fog,0,2012-10-24 09:46:00
5:53 AM,51.1,50.0,96,30.16,9.0,Calm,Calm,-,N/A,Fog,Patches of Fog,0,2012-10-24 09:53:00
6:35 AM,50.0,50.0,100,30.18,1.0,Calm,Calm,-,N/A,Fog,Patches of Fog,0,2012-10-24 10:35:00
6:40 AM,50.0,50.0,100,30.19,0.5,Calm,Calm,-,N/A,Fog,Fog,0,2012-10-24 10:40:00
6:53 AM,50.0,50.0,100,30.18,0.5,Calm,Calm,-,N/A,Fog,Fog,0,2012-10-24 10:53:00
7:25 AM,50.0,50.0,100,30.20,0.2,Calm,Calm,-,N/A,Fog,Fog,0,2012-10-24 11:25:00
7:53 AM,50.0,50.0,100,30.20,0.2,Calm,Calm,-,N/A,Fog,Fog,0,2012-10-24 11:53:00
8:49 AM,51.8,51.8,100,30.21,0.2,Calm,Calm,-,N/A,Fog,Fog,0,2012-10-24 12:49:00
8:53 AM,51.1,51.1,100,30.21,0.2,Calm,Calm,-,N/A,Fog,Fog,0,2012-10-24 12:53:00
9:53 AM,53.1,53.1,100,30.21,0.2,Calm,Calm,-,N/A,Fog,Fog,0,2012-10-24 13:53:00
10:03 AM,53.6,53.6,100,30.22,0.5,Calm,Calm,-,N/A,Fog,Fog,0,2012-10-24 14:03:00
10:21 AM,55.4,55.4,100,30.22,1.0,Calm,Calm,-,N/A,,Scattered Clouds,0,2012-10-24 14:21:00
10:39 AM,57.2,55.4,94,30.22,7.0,Calm,Calm,-,N/A,,Scattered Clouds,0,2012-10-24 14:39:00
10:53 AM,60.1,55.9,86,30.21,7.0,Calm,Calm,-,N/A,,Scattered Clouds,0,2012-10-24 14:53:00
11:53 AM,68.0,54.0,61,30.19,10.0,Calm,Calm,-,N/A,,Partly Cloudy,0,2012-10-24 15:53:00
12:53 PM,72.0,53.1,51,30.16,10.0,SSW,4.6,-,N/A,,Partly Cloudy,210,2012-10-24 16:53:00
1:53 PM,75.9,55.0,48,30.12,10.0,Variable,3.5,-,N/A,,Partly Cloudy,0,2012-10-24 17:53:00
2:53 PM,77.0,55.0,47,30.10,10.0,SW,3.5,-,N/A,,Partly Cloudy,220,2012-10-24 18:53:00
3:53 PM,79.0,54.0,42,30.08,10.0,Calm,Calm,-,N/A,,Partly Cloudy,0,2012-10-24 19:53:00
4:53 PM,78.8,51.8,39,30.08,10.0,SW,3.5,-,N/A,,Partly Cloudy,220,2012-10-24 20:53:00
5:53 PM,78.1,52.0,40,30.06,10.0,Calm,Calm,-,N/A,,Scattered Clouds,0,2012-10-24 21:53:00
6:53 PM,73.0,55.0,53,30.07,10.0,ENE,3.5,-,N/A,,Scattered Clouds,70,2012-10-24 22:53:00
7:53 PM,64.9,57.9,78,30.08,10.0,Calm,Calm,-,N/A,,Partly Cloudy,0,2012-10-24 23:53:00
8:53 PM,64.0,57.0,78,30.09,10.0,Calm,Calm,-,N/A,,Clear,0,2012-10-25 00:53:00
9:53 PM,59.0,57.0,93,30.10,10.0,Calm,Calm,-,N/A,,Clear,0,2012-10-25 01:53:00
10:53 PM,57.9,55.9,93,30.10,10.0,Calm,Calm,-,N/A,,Clear,0,2012-10-25 02:53:00
11:53 PM,57.9,55.9,93,30.09,10.0,Calm,Calm,-,N/A,,Clear,0,2012-10-25 03:53:00